Location: ??????
(55.7522°N, 37.6156°E)
Time: 17:20:44
(UTC+00:00)

NOSS 3-1 (A) - Pass Details

Date: 14 June 2025
Orbit: 639 x 1568 km, 63.4° (Epoch: 21 June)

Event Time Altitude Azimuth Distance (km) Brightness Sun altitude
Rises 21:27:41 0° 310° (NW) 3,711 7.2 -10.9°
Reaches altitude 10° 21:30:07 10° 305° (NW) 2,883 6.5 -10.9°
Maximum altitude 21:36:49 52° 232° (SW) 1,502 4.2 -10.9°
Drops below altitude 10° 21:45:03 10° 159° (SSE) 3,514 5.8 -10.9°
Enters shadow 21:45:15 - 159° (SSE) 3,583 5.9 -10.9°
